Precipitable_Water
0.93 0.87 0.87 0.86 0.97 1.11 1.21 1.27 1.33 1.41 1.45 1.49 1.53 1.57 1.60 1.55 1.56 1.61 1.50 1.35 1.26 1.15 1.10 1.09 1.07 1.06 1.05 1.09 1.08 1.11 1.15 1.20 1.26 1.19 1.13 1.13 1.12 1.14 1.19 1.21 1.19 1.22 1.25 1.27 1.28 1.24 1.13 1.12 1.15 1.19 1.27 1.26 1.26 1.24 1.22 1.21 1.22 1.18 1.12 1.06 1.00 0.99 0.92 0.82 0.73 0.77 0.92 1.05 1.03 1.03 1.10 1.13 1.11 1.17 1.14 1.16 1.17 1.19 1.18 1.21 1.19 1.18 1.16 1.12 1.11
0.95 0.85 0.84 0.87 0.97 1.07 1.18 1.27 1.32 1.37 1.41 1.45 1.48 1.57 1.61 1.60 1.48 1.53 1.58 1.51 1.32 1.18 1.12 1.14 1.13 1.07 1.05 1.04 1.06 1.10 1.17 1.21 1.25 1.19 1.18 1.13 1.14 1.16 1.18 1.18 1.18 1.20 1.22 1.22 1.27 1.25 1.16 1.11 1.15 1.21 1.29 1.28 1.28 1.24 1.24 1.22 1.19 1.13 1.09 1.04 0.99 0.97 0.96 0.86 0.82 0.82 0.88 1.02 1.03 1.12 1.11 1.16 1.06 1.18 1.13 1.13 1.15 1.17 1.14 1.17 1.19 1.20 1.18 1.15 1.13
0.94 0.87 0.81 0.85 0.95 1.02 1.08 1.20 1.30 1.34 1.35 1.36 1.40 1.46 1.58 1.56 1.53 1.39 1.46 1.62 1.49 1.27 1.21 1.16 1.13 1.10 1.06 1.05 1.09 1.12 1.16 1.20 1.25 1.23 1.21 1.17 1.15 1.16 1.19 1.18 1.18 1.18 1.19 1.20 1.25 1.24 1.14 1.09 1.14 1.21 1.27 1.25 1.28 1.26 1.27 1.23 1.19 1.11 1.07 1.06 1.00 0.97 0.98 0.94 0.88 0.84 0.91 0.97 1.09 1.08 1.10 1.15 1.12 1.13 1.19 1.20 1.19 1.18 1.13 1.14 1.15 1.17 1.19 1.19 1.16
1.01 0.92 0.85 0.85 0.96 1.02 1.08 1.18 1.27 1.35 1.35 1.37 1.39 1.43 1.45 1.52 1.59 1.48 1.36 1.44 1.58 1.45 1.31 1.20 1.18 1.13 1.11 1.09 1.14 1.13 1.15 1.21 1.24 1.25 1.24 1.20 1.18 1.17 1.18 1.19 1.20 1.20 1.21 1.21 1.23 1.23 1.14 1.07 1.11 1.20 1.22 1.21 1.26 1.27 1.26 1.24 1.19 1.13 1.07 1.05 1.00 0.95 0.94 0.96 0.96 0.90 0.95 0.94 1.04 1.07 1.13 1.13 1.18 1.23 1.22 1.23 1.20 1.16 1.15 1.15 1.17 1.16 1.18 1.20 1.18
1.08 0.96 0.90 0.93 1.01 1.04 1.07 1.10 1.18 1.28 1.36 1.37 1.37 1.40 1.42 1.45 1.47 1.46 1.44 1.37 1.47 1.55 1.46 1.33 1.22 1.18 1.09 1.09 1.14 1.16 1.17 1.23 1.24 1.26 1.26 1.25 1.21 1.20 1.18 1.17 1.18 1.21 1.22 1.22 1.22 1.20 1.16 1.11 1.12 1.16 1.17 1.17 1.23 1.25 1.25 1.20 1.19 1.13 1.06 1.05 1.00 0.99 0.95 0.95 0.95 0.95 0.93 0.96 1.02 1.12 1.17 1.17 1.21 1.22 1.23 1.15 1.16 1.14 1.16 1.14 1.15 1.14 1.14 1.18 1.19
1.09 0.88 0.89 0.90 0.94 0.98 1.01 1.06 1.10 1.20 1.30 1.38 1.39 1.39 1.43 1.46 1.46 1.43 1.43 1.41 1.39 1.54 1.57 1.45 1.31 1.13 1.10 1.11 1.17 1.20 1.26 1.30 1.29 1.26 1.25 1.24 1.24 1.22 1.18 1.16 1.20 1.23 1.24 1.22 1.23 1.19 1.15 1.15 1.17 1.17 1.16 1.14 1.19 1.24 1.24 1.21 1.18 1.13 1.07 1.05 1.02 1.03 1.01 1.01 0.99 0.94 0.94 1.01 1.02 1.04 1.13 1.13 1.15 1.18 1.23 1.21 1.12 1.08 1.09 1.14 1.16 1.16 1.12 1.08 1.12
1.18 1.09 0.95 0.95 1.00 1.00 1.04 1.08 1.14 1.17 1.25 1.34 1.40 1.42 1.44 1.46 1.47 1.48 1.49 1.43 1.40 1.43 1.56 1.48 1.36 1.16 1.10 1.15 1.19 1.25 1.29 1.33 1.30 1.27 1.24 1.24 1.22 1.18 1.17 1.20 1.24 1.27 1.26 1.23 1.21 1.18 1.13 1.17 1.21 1.23 1.21 1.19 1.22 1.24 1.25 1.22 1.20 1.14 1.09 1.04 1.02 1.01 1.00 1.03 1.02 1.01 0.97 1.00 1.03 1.08 1.09 1.16 1.15 1.10 1.19 1.22 1.19 1.13 1.05 1.04 1.05 1.14 1.11 1.06 1.05
1.11 1.20 1.12 1.06 1.02 1.02 1.06 1.12 1.13 1.18 1.22 1.25 1.31 1.37 1.39 1.42 1.47 1.47 1.50 1.44 1.40 1.44 1.46 1.52 1.41 1.22 1.16 1.17 1.26 1.30 1.33 1.34 1.34 1.29 1.26 1.23 1.20 1.18 1.19 1.24 1.28 1.28 1.27 1.25 1.20 1.17 1.14 1.17 1.22 1.27 1.28 1.29 1.30 1.31 1.30 1.24 1.22 1.15 1.11 1.08 1.04 1.00 0.99 1.02 1.07 1.07 1.02 1.00 1.00 1.03 1.08 1.08 1.11 1.16 1.18 1.16 1.11 1.11 1.11 1.05 0.98 1.02 1.06 1.06 1.07
1.09 1.16 1.20 1.07 1.01 1.00 1.04 1.09 1.16 1.19 1.19 1.21 1.25 1.29 1.35 1.43 1.48 1.49 1.48 1.45 1.45 1.50 1.59 1.66 1.44 1.28 1.22 1.25 1.30 1.34 1.35 1.33 1.32 1.27 1.23 1.24 1.21 1.19 1.26 1.31 1.30 1.27 1.24 1.20 1.18 1.16 1.15 1.19 1.23 1.27 1.32 1.36 1.37 1.38 1.37 1.32 1.24 1.13 1.12 1.09 1.03 1.01 0.99 1.01 1.05 1.07 1.05 1.03 1.02 1.06 1.06 1.06 1.07 1.06 1.05 1.04 1.01 0.98 1.07 1.07 1.02 1.06 1.07 1.03 1.06
1.06 1.14 1.19 1.10 0.99 0.99 1.03 1.08 1.14 1.22 1.26 1.26 1.27 1.34 1.42 1.46 1.48 1.47 1.47 1.50 1.52 1.59 1.72 1.65 1.58 1.49 1.35 1.29 1.30 1.36 1.37 1.36 1.31 1.27 1.25 1.23 1.22 1.27 1.33 1.32 1.29 1.25 1.20 1.17 1.15 1.15 1.14 1.19 1.23 1.27 1.33 1.37 1.37 1.37 1.35 1.32 1.29 1.22 1.17 1.12 1.05 1.00 0.98 0.95 1.00 1.04 1.04 1.02 1.02 1.02 1.00 1.01 1.04 1.05 1.03 1.03 1.07 1.08 1.03 1.03 0.99 1.05 1.06 1.01 1.03
1.10 1.16 1.14 1.13 1.07 1.06 1.05 1.07 1.12 1.16 1.23 1.29 1.32 1.35 1.38 1.43 1.45 1.42 1.45 1.52 1.53 1.58 1.60 1.59 1.52 1.55 1.54 1.36 1.31 1.36 1.38 1.36 1.31 1.29 1.28 1.28 1.32 1.33 1.30 1.28 1.25 1.21 1.19 1.17 1.12 1.13 1.15 1.20 1.23 1.26 1.31 1.34 1.35 1.33 1.32 1.29 1.26 1.22 1.21 1.18 1.15 1.08 0.98 0.94 1.00 1.05 1.03 1.03 1.07 1.05 1.03 1.02 1.06 1.10 1.09 1.08 1.08 1.02 0.99 1.00 1.01 1.01 0.98 0.93 0.88
0.88 1.05 1.16 1.16 1.13 1.10 1.09 1.11 1.13 1.17 1.24 1.28 1.34 1.37 1.38 1.39 1.38 1.37 1.41 1.49 1.52 1.56 1.49 1.58 1.48 1.46 1.61 1.53 1.43 1.37 1.34 1.35 1.33 1.30 1.31 1.34 1.35 1.31 1.31 1.28 1.25 1.21 1.18 1.16 1.12 1.12 1.16 1.19 1.23 1.26 1.31 1.33 1.33 1.30 1.28 1.26 1.25 1.22 1.19 1.18 1.17 1.13 1.09 1.02 1.03 1.04 1.07 1.07 1.08 1.08 1.08 1.06 1.06 1.10 1.09 1.08 1.05 1.02 1.00 0.99 0.99 0.98 0.98 0.96 0.98
0.96 1.02 1.09 1.19 1.20 1.20 1.25 1.25 1.25 1.26 1.27 1.28 1.30 1.32 1.31 1.31 1.32 1.35 1.38 1.46 1.47 1.50 1.45 1.51 1.39 1.32 1.58 1.56 1.48 1.37 1.35 1.34 1.33 1.34 1.35 1.32 1.30 1.31 1.31 1.29 1.25 1.22 1.19 1.16 1.12 1.12 1.14 1.14 1.16 1.22 1.30 1.35 1.33 1.30 1.26 1.23 1.23 1.21 1.18 1.16 1.14 1.12 1.08 1.07 1.11 1.14 1.15 1.14 1.11 1.09 1.10 1.11 1.08 1.09 1.14 1.11 1.12 1.00 0.97 0.96 0.98 1.01 1.03 1.01 1.03
1.06 1.07 1.11 1.14 1.13 1.18 1.15 1.21 1.27 1.30 1.27 1.26 1.26 1.26 1.25 1.26 1.29 1.33 1.36 1.42 1.44 1.45 1.49 1.42 1.31 1.31 1.55 1.56 1.50 1.45 1.40 1.37 1.37 1.35 1.31 1.28 1.29 1.32 1.31 1.28 1.25 1.22 1.19 1.17 1.17 1.18 1.19 1.19 1.16 1.18 1.26 1.33 1.33 1.28 1.24 1.22 1.20 1.17 1.15 1.12 1.09 1.08 1.07 1.06 1.09 1.13 1.18 1.17 1.14 1.11 1.18 1.20 1.12 1.16 1.20 1.19 1.10 0.99 0.94 0.92 1.00 1.02 1.03 1.06 1.13
0.95 1.01 1.04 1.08 1.15 1.20 1.20 1.22 1.27 1.29 1.25 1.27 1.26 1.24 1.25 1.25 1.29 1.33 1.35 1.35 1.34 1.36 1.34 1.32 1.33 1.51 1.62 1.57 1.53 1.46 1.43 1.40 1.36 1.32 1.29 1.27 1.29 1.31 1.31 1.28 1.23 1.20 1.22 1.24 1.25 1.25 1.24 1.26 1.24 1.22 1.26 1.32 1.31 1.27 1.23 1.21 1.18 1.15 1.12 1.09 1.08 1.06 1.05 1.05 1.07 1.12 1.17 1.19 1.19 1.19 1.21 1.24 1.23 1.23 1.25 1.24 1.16 1.09 1.07 1.06 1.11 1.17 1.19 1.22 1.20
0.95 0.97 0.88 0.96 1.06 1.17 1.15 1.17 1.20 1.21 1.18 1.20 1.22 1.23 1.25 1.20 1.20 1.25 1.30 1.32 1.34 1.35 1.36 1.48 1.50 1.59 1.61 1.58 1.49 1.42 1.43 1.40 1.33 1.29 1.28 1.29 1.30 1.31 1.30 1.24 1.19 1.19 1.25 1.30 1.33 1.34 1.33 1.31 1.26 1.25 1.29 1.32 1.31 1.29 1.27 1.25 1.19 1.13 1.09 1.08 1.05 1.03 1.02 1.06 1.08 1.11 1.16 1.18 1.20 1.25 1.25 1.24 1.23 1.22 1.24 1.24 1.18 1.14 1.14 1.19 1.21 1.21 1.15 1.07 1.04
0.93 0.98 0.98 0.99 1.10 1.18 1.19 1.14 1.15 1.17 1.17 1.15 1.16 1.19 1.19 1.17 1.18 1.25 1.25 1.29 1.29 1.32 1.42 1.52 1.63 1.61 1.55 1.50 1.46 1.42 1.38 1.35 1.32 1.31 1.31 1.31 1.30 1.29 1.26 1.23 1.19 1.19 1.26 1.33 1.36 1.38 1.35 1.33 1.29 1.28 1.31 1.31 1.31 1.30 1.30 1.27 1.18 1.13 1.10 1.06 1.04 1.01 0.98 1.02 1.05 1.07 1.09 1.15 1.18 1.22 1.25 1.23 1.20 1.20 1.20 1.20 1.14 1.11 1.11 1.09 1.09 1.14 1.05 0.97 1.00
0.82 0.86 0.89 0.87 1.03 1.10 1.15 1.16 1.16 1.13 1.14 1.15 1.17 1.22 1.25 1.24 1.20 1.23 1.20 1.17 1.23 1.44 1.46 1.61 1.60 1.58 1.56 1.49 1.44 1.36 1.33 1.32 1.31 1.31 1.31 1.31 1.31 1.27 1.24 1.20 1.18 1.20 1.27 1.33 1.34 1.32 1.30 1.31 1.31 1.29 1.28 1.29 1.32 1.33 1.32 1.27 1.18 1.14 1.10 1.04 0.98 0.96 0.96 0.98 0.97 0.99 1.05 1.11 1.15 1.17 1.19 1.19 1.17 1.17 1.17 1.14 1.11 1.13 1.10 1.04 1.12 1.11 1.01 0.98 0.94
0.76 0.77 0.81 0.85 0.88 0.99 1.03 1.07 1.08 1.07 1.03 1.03 1.07 1.12 1.17 1.20 1.22 1.24 1.22 1.18 1.26 1.44 1.54 1.55 1.56 1.56 1.54 1.47 1.43 1.37 1.33 1.31 1.30 1.30 1.31 1.33 1.34 1.31 1.25 1.19 1.17 1.18 1.20 1.25 1.31 1.27 1.25 1.27 1.27 1.27 1.26 1.31 1.36 1.36 1.32 1.29 1.22 1.17 1.12 1.03 0.98 0.96 0.96 0.95 0.90 0.91 0.98 1.04 1.09 1.11 1.11 1.11 1.09 1.10 1.12 1.12 1.10 1.12 1.18 1.16 1.17 1.09 1.00 0.98 0.98
0.74 0.74 0.77 0.79 0.85 0.95 1.03 1.02 1.02 0.99 1.01 1.04 1.07 1.07 1.12 1.16 1.19 1.20 1.22 1.23 1.31 1.46 1.51 1.47 1.42 1.40 1.44 1.44 1.42 1.39 1.34 1.32 1.31 1.32 1.34 1.37 1.37 1.31 1.25 1.18 1.14 1.15 1.15 1.20 1.21 1.24 1.24 1.22 1.23 1.26 1.29 1.33 1.36 1.36 1.33 1.32 1.27 1.21 1.16 1.05 0.99 0.97 1.02 0.97 0.91 0.90 0.93 0.97 1.01 1.04 1.03 1.04 0.98 1.01 1.03 1.04 1.08 1.14 1.17 1.18 1.15 1.11 1.04 1.01 0.99
0.72 0.77 0.79 0.82 0.88 1.01 1.02 1.03 0.99 0.98 0.99 1.00 1.04 1.09 1.11 1.08 1.12 1.20 1.15 1.17 1.31 1.41 1.39 1.33 1.29 1.30 1.34 1.38 1.39 1.40 1.38 1.33 1.33 1.34 1.36 1.38 1.37 1.28 1.23 1.19 1.17 1.15 1.15 1.17 1.21 1.23 1.21 1.21 1.26 1.32 1.36 1.38 1.37 1.36 1.35 1.32 1.29 1.24 1.17 1.10 1.06 1.08 1.08 0.98 0.89 0.91 0.91 0.94 0.96 0.95 0.95 0.98 0.97 0.96 0.95 0.97 1.05 1.13 1.14 1.13 1.12 1.12 1.08 1.02 0.99
0.70 0.77 0.79 0.82 0.81 0.83 0.89 0.94 0.94 0.96 1.02 1.03 1.06 1.06 1.10 1.09 1.10 1.15 1.18 1.13 1.25 1.35 1.30 1.26 1.24 1.26 1.29 1.33 1.36 1.39 1.40 1.36 1.34 1.33 1.34 1.37 1.34 1.29 1.25 1.22 1.21 1.18 1.13 1.15 1.23 1.25 1.25 1.26 1.31 1.37 1.42 1.41 1.39 1.36 1.33 1.29 1.27 1.24 1.21 1.19 1.16 1.12 1.10 1.06 0.95 0.98 1.05 1.03 1.00 0.99 1.00 1.00 0.97 0.95 0.96 1.01 1.06 1.09 1.09 1.08 1.07 1.07 1.08 1.07 1.01
0.66 0.75 0.84 0.87 0.91 0.93 0.97 0.98 0.91 0.94 1.02 1.06 1.05 1.04 1.06 1.08 1.11 1.17 1.21 1.33 1.33 1.29 1.25 1.24 1.24 1.25 1.25 1.28 1.31 1.37 1.37 1.34 1.34 1.33 1.35 1.35 1.31 1.29 1.29 1.27 1.23 1.23 1.15 1.13 1.20 1.26 1.31 1.32 1.36 1.39 1.41 1.41 1.37 1.33 1.31 1.29 1.27 1.23 1.21 1.19 1.16 1.15 1.14 1.12 1.06 1.06 1.08 1.06 1.04 1.02 1.01 0.96 0.92 0.93 0.97 1.02 1.06 1.07 1.05 1.04 1.03 1.03 1.03 1.05 1.07
0.69 0.79 0.91 0.95 0.91 0.94 0.96 0.98 0.97 0.96 1.01 1.03 1.03 1.05 1.06 1.05 1.09 1.16 1.33 1.38 1.27 1.22 1.20 1.21 1.21 1.22 1.24 1.28 1.35 1.39 1.36 1.36 1.37 1.38 1.36 1.30 1.29 1.31 1.29 1.25 1.25 1.23 1.22 1.20 1.26 1.31 1.31 1.33 1.37 1.38 1.38 1.36 1.32 1.30 1.30 1.30 1.27 1.23 1.20 1.18 1.16 1.16 1.17 1.16 1.12 1.08 1.06 1.03 1.02 0.99 0.95 0.94 0.96 0.98 1.02 1.04 1.03 1.01 1.00 1.00 1.00 1.00 1.00 1.00 1.00
0.68 0.78 0.93 0.96 0.87 0.94 0.99 1.02 0.96 0.93 0.97 0.99 0.99 1.00 1.01 1.07 1.01 1.15 1.26 1.26 1.24 1.15 1.15 1.17 1.15 1.17 1.21 1.26 1.34 1.40 1.45 1.43 1.39 1.35 1.30 1.29 1.32 1.34 1.31 1.27 1.26 1.26 1.22 1.25 1.31 1.35 1.34 1.36 1.35 1.34 1.33 1.33 1.31 1.29 1.28 1.28 1.28 1.24 1.20 1.18 1.18 1.16 1.14 1.12 1.07 1.01 0.97 0.98 0.96 0.94 0.94 0.97 1.00 1.05 1.07 1.04 1.00 0.98 0.96 0.96 0.97 0.99 1.00 0.99 0.93
0.72 0.78 0.93 1.06 1.03 0.98 0.94 0.95 0.95 0.92 0.93 0.95 0.99 0.97 0.93 1.00 1.06 1.09 1.20 1.25 1.18 1.11 1.11 1.14 1.14 1.18 1.20 1.21 1.29 1.36 1.43 1.39 1.35 1.27 1.25 1.29 1.32 1.34 1.30 1.27 1.27 1.26 1.24 1.26 1.30 1.33 1.35 1.34 1.34 1.33 1.34 1.35 1.31 1.27 1.26 1.28 1.26 1.23 1.19 1.19 1.17 1.12 1.08 1.02 0.97 0.96 0.94 0.94 0.94 0.95 0.97 1.00 1.02 1.03 1.00 0.97 0.93 0.90 0.89 0.90 0.92 0.92 0.90 0.85 0.78
0.74 0.75 0.83 1.02 1.03 0.94 0.85 0.84 0.85 0.85 0.89 0.95 0.99 1.02 1.01 1.00 1.13 1.20 1.21 1.14 1.07 1.02 1.01 1.01 1.04 1.13 1.19 1.22 1.21 1.27 1.37 1.35 1.30 1.22 1.21 1.24 1.28 1.30 1.28 1.25 1.27 1.26 1.23 1.23 1.26 1.29 1.30 1.33 1.33 1.35 1.38 1.37 1.32 1.30 1.28 1.26 1.23 1.19 1.18 1.16 1.13 1.09 1.05 1.00 0.96 0.94 0.93 0.94 0.96 0.97 0.97 0.98 1.00 0.97 0.93 0.89 0.85 0.86 0.89 0.87 0.85 0.83 0.79 0.72 0.64
0.81 0.83 0.80 0.91 1.01 1.00 0.85 0.84 0.83 0.86 0.84 0.81 0.86 0.96 1.06 1.12 1.13 1.11 1.08 1.05 1.00 0.98 0.94 0.93 0.95 1.01 1.04 1.03 1.05 1.19 1.28 1.31 1.27 1.18 1.16 1.19 1.24 1.28 1.28 1.26 1.24 1.22 1.19 1.22 1.24 1.26 1.26 1.27 1.28 1.30 1.34 1.31 1.31 1.28 1.27 1.26 1.24 1.18 1.14 1.12 1.10 1.09 1.05 1.02 1.01 0.98 0.96 0.97 0.96 0.96 0.95 0.96 0.94 0.91 0.88 0.85 0.84 0.84 0.84 0.82 0.81 0.79 0.74 0.65 0.58
0.80 0.90 0.87 0.86 0.99 1.02 0.91 0.79 0.74 0.77 0.79 0.78 0.82 0.89 0.93 0.97 1.02 1.00 1.04 1.11 1.08 0.99 0.91 0.90 0.91 0.99 1.01 1.03 1.10 1.17 1.28 1.23 1.17 1.18 1.19 1.24 1.26 1.26 1.24 1.22 1.22 1.21 1.20 1.21 1.21 1.21 1.22 1.21 1.20 1.21 1.25 1.27 1.30 1.26 1.22 1.20 1.16 1.14 1.10 1.08 1.06 1.03 0.98 0.96 0.93 0.92 0.94 0.95 0.94 0.93 0.95 0.95 0.91 0.88 0.86 0.84 0.83 0.83 0.86 0.84 0.82 0.76 0.70 0.63 0.55
0.78 0.79 0.80 0.77 0.82 0.87 0.81 0.71 0.69 0.65 0.64 0.67 0.71 0.79 0.90 0.96 0.99 1.00 1.02 1.09 1.18 1.22 1.19 1.06 1.01 1.08 1.15 1.25 1.30 1.24 1.23 1.20 1.21 1.13 1.14 1.20 1.28 1.30 1.28 1.25 1.23 1.20 1.20 1.23 1.21 1.17 1.19 1.21 1.24 1.25 1.26 1.25 1.24 1.21 1.19 1.15 1.09 1.04 1.04 1.02 1.00 0.96 0.96 0.97 0.98 0.98 0.97 0.94 0.94 0.94 0.93 0.91 0.87 0.86 0.86 0.83 0.82 0.84 0.84 0.82 0.75 0.71 0.62 0.56 0.50
0.89 0.83 0.70 0.73 0.77 0.78 0.72 0.68 0.70 0.65 0.64 0.66 0.68 0.68 0.75 0.86 0.94 1.00 1.02 1.07 1.11 1.18 1.23 1.24 1.29 1.41 1.44 1.38 1.40 1.39 1.29 1.22 1.16 1.13 1.12 1.15 1.22 1.25 1.24 1.24 1.21 1.20 1.22 1.19 1.14 1.17 1.19 1.22 1.25 1.25 1.23 1.22 1.19 1.17 1.15 1.09 1.03 1.00 0.98 0.94 0.97 0.98 0.99 1.00 1.00 0.98 0.96 0.95 0.95 0.94 0.90 0.86 0.85 0.86 0.85 0.82 0.81 0.82 0.81 0.77 0.72 0.65 0.59 0.54 0.50
0.91 0.89 0.81 0.75 0.80 0.81 0.79 0.73 0.67 0.63 0.64 0.66 0.74 0.76 0.78 0.78 0.82 0.90 0.94 1.00 1.06 1.13 1.19 1.24 1.28 1.30 1.35 1.35 1.31 1.22 1.18 1.15 1.12 1.10 1.09 1.09 1.15 1.20 1.21 1.20 1.21 1.23 1.24 1.23 1.12 1.09 1.13 1.17 1.20 1.20 1.18 1.13 1.12 1.11 1.08 1.02 0.99 0.99 0.98 0.94 0.96 1.00 0.99 0.98 0.99 0.98 0.96 0.94 0.92 0.89 0.87 0.86 0.86 0.86 0.83 0.81 0.80 0.79 0.76 0.72 0.68 0.61 0.58 0.56 0.55
0.78 0.80 0.82 0.89 0.96 0.97 0.96 0.87 0.77 0.69 0.71 0.77 0.80 0.79 0.76 0.76 0.73 0.75 0.85 0.93 1.00 1.06 1.11 1.16 1.20 1.22 1.23 1.25 1.24 1.19 1.18 1.18 1.17 1.15 1.12 1.10 1.15 1.20 1.23 1.23 1.23 1.25 1.23 1.16 1.12 1.15 1.15 1.14 1.14 1.16 1.15 1.10 1.09 1.07 1.03 1.02 1.01 1.04 1.03 0.96 0.97 0.99 0.99 1.00 1.00 0.97 0.94 0.93 0.90 0.87 0.86 0.86 0.86 0.84 0.82 0.80 0.78 0.76 0.73 0.69 0.65 0.61 0.59 0.55 0.51
0.77 0.77 0.79 0.90 1.03 1.09 1.10 0.97 0.88 0.84 0.84 0.86 0.84 0.80 0.79 0.79 0.78 0.74 0.72 0.77 0.87 0.98 1.06 1.10 1.15 1.19 1.22 1.21 1.19 1.19 1.20 1.22 1.21 1.18 1.16 1.15 1.19 1.23 1.23 1.23 1.25 1.26 1.21 1.16 1.15 1.14 1.17 1.18 1.18 1.13 1.11 1.09 1.08 1.05 1.02 1.03 1.06 1.05 1.03 1.00 0.99 0.99 0.99 0.99 0.96 0.93 0.92 0.90 0.87 0.86 0.85 0.87 0.86 0.83 0.81 0.79 0.78 0.75 0.70 0.69 0.65 0.60 0.57 0.53 0.50
0.99 1.00 1.02 1.06 0.98 0.84 0.94 1.03 1.01 0.95 0.91 0.89 0.88 0.84 0.82 0.84 0.83 0.78 0.74 0.72 0.74 0.78 0.86 0.99 1.10 1.15 1.16 1.18 1.19 1.20 1.20 1.18 1.18 1.18 1.17 1.18 1.21 1.23 1.24 1.18 1.13 1.13 1.14 1.16 1.15 1.12 1.13 1.17 1.13 1.09 1.08 1.05 1.04 1.04 1.06 1.07 1.06 1.03 1.02 1.01 0.99 0.97 0.96 0.94 0.93 0.90 0.88 0.87 0.85 0.84 0.85 0.87 0.85 0.83 0.81 0.78 0.74 0.70 0.68 0.67 0.64 0.60 0.54 0.51 0.49
0.98 1.02 1.03 1.01 0.97 0.92 0.91 0.94 1.01 1.00 0.95 0.93 0.95 0.95 0.92 0.89 0.85 0.83 0.83 0.83 0.82 0.80 0.82 0.89 0.97 1.04 1.10 1.13 1.14 1.16 1.16 1.15 1.16 1.18 1.19 1.19 1.20 1.22 1.14 1.11 1.12 1.13 1.12 1.10 1.07 1.12 1.12 1.12 1.11 1.08 1.07 1.06 1.06 1.08 1.11 1.08 1.06 1.04 1.04 1.01 0.98 0.97 0.95 0.93 0.91 0.87 0.86 0.85 0.85 0.87 0.88 0.87 0.84 0.81 0.78 0.75 0.72 0.70 0.68 0.64 0.60 0.58 0.56 0.52 0.48
0.89 0.92 0.93 0.95 0.98 0.98 0.92 0.92 0.96 1.00 0.99 1.00 1.02 1.01 0.99 0.98 0.94 0.91 0.90 0.89 0.86 0.83 0.83 0.85 0.89 0.94 1.01 1.06 1.09 1.10 1.12 1.11 1.13 1.17 1.19 1.19 1.22 1.24 1.21 1.19 1.16 1.14 1.10 1.09 1.12 1.15 1.11 1.08 1.09 1.08 1.09 1.09 1.11 1.12 1.11 1.09 1.09 1.08 1.06 1.04 1.01 0.98 0.96 0.95 0.92 0.88 0.86 0.87 0.89 0.89 0.88 0.86 0.82 0.78 0.76 0.72 0.70 0.69 0.67 0.63 0.60 0.56 0.54 0.51 0.48
0.79 0.82 0.83 0.86 0.91 0.97 0.98 0.99 1.00 0.98 0.97 0.98 1.01 1.01 0.99 0.99 0.97 0.96 0.95 0.94 0.90 0.84 0.81 0.82 0.85 0.86 0.86 0.91 0.99 1.03 1.05 1.09 1.12 1.14 1.18 1.19 1.20 1.20 1.20 1.19 1.16 1.12 1.10 1.12 1.13 1.13 1.10 1.09 1.10 1.12 1.14 1.14 1.12 1.13 1.11 1.11 1.11 1.09 1.07 1.04 1.02 1.00 0.99 0.96 0.93 0.90 0.88 0.89 0.91 0.90 0.88 0.84 0.81 0.78 0.74 0.70 0.68 0.67 0.65 0.62 0.58 0.55 0.53 0.51 0.49
0.70 0.71 0.74 0.77 0.80 0.84 0.89 0.93 0.94 0.93 0.93 0.96 0.99 1.00 0.99 0.97 0.95 0.92 0.89 0.88 0.86 0.86 0.87 0.87 0.87 0.86 0.88 0.92 0.94 0.99 1.01 0.99 1.00 1.03 1.09 1.14 1.20 1.22 1.19 1.16 1.13 1.13 1.13 1.12 1.12 1.12 1.12 1.12 1.16 1.18 1.18 1.18 1.16 1.15 1.13 1.12 1.11 1.09 1.07 1.04 1.02 1.00 0.98 0.94 0.91 0.90 0.90 0.91 0.91 0.90 0.87 0.82 0.78 0.75 0.71 0.68 0.66 0.66 0.63 0.61 0.57 0.53 0.50 0.49 0.47
0.67 0.67 0.69 0.70 0.71 0.74 0.79 0.83 0.85 0.88 0.96 1.00 0.99 0.98 0.98 0.96 0.94 0.93 0.89 0.83 0.79 0.79 0.81 0.82 0.85 0.88 0.92 0.94 0.94 0.95 0.94 0.96 1.01 1.07 1.11 1.15 1.17 1.17 1.14 1.11 1.10 1.10 1.09 1.08 1.10 1.13 1.16 1.17 1.19 1.20 1.21 1.21 1.20 1.18 1.17 1.15 1.12 1.10 1.08 1.05 1.02 0.98 0.95 0.94 0.94 0.94 0.93 0.92 0.90 0.88 0.84 0.80 0.76 0.72 0.68 0.66 0.65 0.64 0.60 0.58 0.56 0.53 0.50 0.48 0.47
0.67 0.68 0.70 0.71 0.72 0.75 0.79 0.82 0.84 0.87 0.94 0.99 1.03 1.02 1.00 0.97 0.96 0.92 0.87 0.84 0.81 0.80 0.81 0.85 0.88 0.90 0.93 0.95 0.99 1.01 1.01 1.02 1.07 1.10 1.14 1.17 1.17 1.14 1.12 1.11 1.12 1.11 1.12 1.12 1.13 1.15 1.18 1.20 1.21 1.24 1.24 1.23 1.23 1.21 1.19 1.16 1.13 1.11 1.09 1.06 1.03 1.00 0.99 0.97 0.96 0.94 0.93 0.90 0.87 0.83 0.80 0.76 0.71 0.67 0.64 0.63 0.63 0.62 0.59 0.58 0.55 0.52 0.50 0.50 0.49
0.70 0.70 0.71 0.74 0.76 0.76 0.76 0.77 0.80 0.84 0.90 0.97 1.01 1.02 1.00 0.99 0.97 0.95 0.93 0.90 0.89 0.87 0.85 0.86 0.88 0.90 0.94 0.98 1.01 1.03 1.10 1.14 1.14 1.18 1.17 1.18 1.19 1.19 1.16 1.16 1.17 1.16 1.16 1.18 1.20 1.21 1.25 1.28 1.28 1.29 1.25 1.24 1.23 1.21 1.18 1.15 1.12 1.10 1.08 1.05 1.02 1.00 0.96 0.94 0.94 0.93 0.90 0.87 0.84 0.80 0.75 0.69 0.66 0.66 0.64 0.62 0.60 0.59 0.57 0.56 0.54 0.50 0.48 0.48 0.46
0.76 0.75 0.75 0.77 0.78 0.79 0.79 0.80 0.82 0.84 0.87 0.94 1.01 1.02 1.02 1.00 0.96 0.94 0.93 0.94 0.94 0.94 0.92 0.89 0.90 0.94 0.97 1.02 1.07 1.12 1.11 1.16 1.23 1.20 1.18 1.19 1.20 1.21 1.17 1.16 1.17 1.20 1.27 1.30 1.31 1.34 1.34 1.31 1.30 1.26 1.24 1.25 1.25 1.21 1.17 1.15 1.13 1.10 1.07 1.02 0.99 0.97 0.95 0.94 0.93 0.92 0.88 0.83 0.80 0.78 0.73 0.68 0.67 0.65 0.63 0.60 0.58 0.57 0.56 0.55 0.53 0.51 0.49 0.47 0.44
0.81 0.79 0.78 0.79 0.82 0.84 0.86 0.86 0.86 0.87 0.90 0.95 1.00 1.02 1.00 0.97 0.96 0.95 0.93 0.91 0.97 0.99 0.98 0.96 0.96 0.97 1.00 1.04 1.07 1.10 1.10 1.09 1.09 1.12 1.19 1.20 1.22 1.21 1.18 1.18 1.19 1.21 1.24 1.27 1.30 1.33 1.30 1.27 1.24 1.24 1.24 1.24 1.21 1.18 1.16 1.14 1.10 1.05 1.01 0.98 0.97 0.96 0.95 0.94 0.92 0.89 0.86 0.81 0.78 0.74 0.70 0.67 0.66 0.64 0.62 0.59 0.57 0.55 0.54 0.54 0.53 0.51 0.48 0.45 0.41
0.86 0.85 0.84 0.84 0.85 0.85 0.86 0.88 0.89 0.91 0.96 0.99 1.01 1.03 1.02 1.01 1.00 1.01 1.04 1.07 1.11 1.12 1.05 1.00 0.99 1.03 1.07 1.00 1.06 1.11 1.10 1.09 1.12 1.19 1.20 1.25 1.26 1.24 1.23 1.22 1.21 1.22 1.23 1.28 1.32 1.28 1.26 1.24 1.24 1.22 1.19 1.15 1.11 1.08 1.06 1.05 1.02 1.00 1.00 0.98 0.95 0.93 0.92 0.92 0.92 0.91 0.86 0.80 0.75 0.71 0.69 0.66 0.65 0.63 0.61 0.59 0.57 0.56 0.54 0.53 0.52 0.50 0.46 0.42 0.39
0.90 0.88 0.87 0.87 0.87 0.87 0.87 0.87 0.88 0.88 0.89 0.90 0.91 0.91 0.94 1.02 1.06 1.07 1.11 1.11 1.14 1.16 1.16 1.09 1.04 1.07 1.12 1.09 1.09 1.12 1.14 1.16 1.18 1.20 1.23 1.23 1.24 1.23 1.22 1.22 1.22 1.21 1.24 1.27 1.28 1.27 1.24 1.23 1.22 1.18 1.12 1.07 1.05 1.03 1.00 0.99 0.99 0.97 0.97 0.97 0.96 0.95 0.94 0.93 0.92 0.87 0.83 0.78 0.74 0.71 0.69 0.66 0.64 0.63 0.61 0.59 0.57 0.57 0.56 0.54 0.51 0.48 0.43 0.40 0.39
0.91 0.89 0.88 0.88 0.88 0.89 0.91 0.92 0.91 0.88 0.87 0.87 0.87 0.88 0.91 0.98 1.05 1.09 1.10 1.11 1.15 1.12 1.08 1.08 1.04 1.04 1.05 1.09 1.13 1.16 1.17 1.18 1.19 1.20 1.22 1.23 1.20 1.20 1.20 1.23 1.25 1.25 1.25 1.23 1.24 1.24 1.24 1.22 1.21 1.16 1.10 1.06 1.05 1.02 0.97 0.96 0.97 0.96 0.95 0.94 0.94 0.93 0.92 0.90 0.88 0.84 0.80 0.78 0.75 0.72 0.69 0.66 0.65 0.62 0.60 0.58 0.56 0.55 0.54 0.50 0.48 0.45 0.42 0.40 0.38
0.95 0.94 0.94 0.92 0.91 0.91 0.92 0.93 0.93 0.94 0.94 0.93 0.92 0.92 0.95 1.00 1.04 1.06 1.07 1.10 1.12 1.13 1.12 1.12 1.11 1.12 1.13 1.17 1.19 1.16 1.15 1.16 1.16 1.16 1.17 1.16 1.16 1.15 1.19 1.20 1.20 1.20 1.21 1.22 1.21 1.20 1.19 1.20 1.18 1.14 1.10 1.06 1.03 1.01 0.99 0.97 0.96 0.94 0.94 0.94 0.93 0.90 0.88 0.86 0.84 0.82 0.79 0.77 0.75 0.73 0.71 0.70 0.67 0.63 0.61 0.59 0.57 0.54 0.50 0.46 0.44 0.43 0.41 0.38 0.35
0.92 0.93 0.94 0.94 0.94 0.94 0.94 0.93 0.94 0.95 0.95 0.96 0.96 0.96 0.97 0.99 1.01 1.04 1.05 1.07 1.10 1.12 1.13 1.12 1.13 1.13 1.13 1.14 1.16 1.16 1.15 1.11 1.10 1.11 1.12 1.13 1.12 1.12 1.15 1.17 1.18 1.19 1.19 1.20 1.20 1.18 1.17 1.18 1.16 1.14 1.10 1.06 1.03 1.00 0.98 0.95 0.93 0.91 0.91 0.91 0.88 0.84 0.82 0.82 0.80 0.78 0.77 0.76 0.74 0.73 0.72 0.69 0.66 0.61 0.57 0.55 0.53 0.51 0.47 0.45 0.43 0.41 0.39 0.36 0.33
0.89 0.90 0.91 0.91 0.91 0.92 0.94 0.94 0.94 0.94 0.95 0.94 0.94 0.93 0.94 0.95 0.96 0.97 0.99 1.01 1.03 1.06 1.08 1.09 1.10 1.09 1.09 1.09 1.10 1.12 1.11 1.10 1.09 1.09 1.09 1.10 1.11 1.12 1.13 1.14 1.16 1.16 1.16 1.16 1.17 1.16 1.16 1.15 1.14 1.12 1.07 1.03 0.99 0.97 0.94 0.92 0.91 0.92 0.89 0.85 0.82 0.81 0.81 0.79 0.78 0.76 0.75 0.74 0.72 0.70 0.67 0.63 0.59 0.55 0.52 0.51 0.49 0.47 0.45 0.43 0.41 0.39 0.36 0.33 0.31
0.85 0.86 0.88 0.88 0.89 0.90 0.90 0.89 0.89 0.89 0.90 0.92 0.93 0.94 0.93 0.92 0.94 0.94 0.94 0.94 0.96 0.99 1.02 1.03 1.03 1.04 1.04 1.05 1.06 1.06 1.07 1.08 1.09 1.10 1.10 1.10 1.11 1.12 1.13 1.13 1.13 1.13 1.13 1.13 1.11 1.10 1.08 1.07 1.06 1.04 1.02 0.99 0.96 0.93 0.91 0.91 0.90 0.87 0.84 0.82 0.80 0.79 0.78 0.76 0.74 0.73 0.72 0.70 0.68 0.64 0.60 0.56 0.54 0.51 0.50 0.48 0.47 0.45 0.43 0.41 0.38 0.36 0.33 0.31 0.29
Wind_Speed
50 49 48 46 46 45 46 47 47 46 45 45 46 46 45 43 41 40 40 41 40 39 39 37 36 34 33 32 31 29 28 27 27 27 25 22 21 19 18 17 15 14 13 13 13 14 13 13 12 11 11 10 10 9 9 10 10 10 10 10 10 10 10 10 11 11 11 10 10 10 11 11 11 11 10 10 9 9 9 9 9 9 10 10 10
50 49 48 47 46 46 46 46 47 47 46 46 46 45 44 44 43 40 39 40 40 40 39 38 37 35 34 33 31 30 29 28 28 28 26 24 22 20 19 18 16 15 14 14 14 14 14 14 13 12 11 11 10 10 10 10 10 10 10 10 10 10 10 10 11 12 11 10 10 11 11 12 12 11 11 11 10 10 10 10 10 11 12 12 12
50 50 49 48 47 46 45 45 46 48 47 47 47 46 45 44 44 43 40 39 40 40 40 39 38 37 35 34 32 31 30 29 29 28 27 25 23 21 20 19 18 16 15 15 15 15 15 15 14 13 12 12 11 11 10 10 10 10 10 10 10 11 11 11 11 12 11 10 11 11 11 12 12 12 12 12 12 11 12 12 12 12 13 13 14
50 51 50 49 48 47 46 45 45 47 47 46 46 47 46 44 44 45 43 41 39 40 40 39 39 38 36 35 33 32 31 30 30 29 28 26 25 23 21 20 19 17 17 16 16 16 16 16 15 14 13 13 12 12 11 11 10 10 10 10 11 11 12 12 12 13 12 11 11 12 12 12 13 13 13 13 13 13 14 13 13 13 14 14 15
50 50 50 49 49 48 47 46 45 45 46 45 45 46 46 45 45 44 44 44 42 40 40 40 39 38 37 35 34 33 32 31 31 30 29 27 25 24 22 21 20 19 18 17 17 17 17 17 16 15 14 13 13 12 12 11 11 11 11 11 12 12 12 13 13 14 13 13 12 12 12 13 13 14 14 14 14 14 14 14 15 15 14 14 15
49 49 49 49 49 48 47 46 46 45 45 44 44 45 45 44 45 44 43 44 45 42 40 41 40 39 37 36 35 34 33 32 32 31 29 27 25 24 23 22 21 20 19 18 17 18 18 17 17 16 15 15 14 13 13 12 12 12 11 12 12 12 13 14 14 14 14 13 13 13 13 13 14 15 15 15 15 14 14 15 15 15 15 14 15
47 47 49 49 49 48 47 47 46 45 44 44 43 44 44 44 44 43 41 42 45 44 41 40 41 39 38 36 35 33 31 31 32 31 29 27 26 24 23 22 21 19 18 18 18 18 18 18 17 17 16 16 15 14 13 13 13 12 12 13 13 13 14 15 15 15 14 13 13 13 14 14 15 15 16 15 15 15 15 15 15 16 15 15 16
46 45 46 48 48 48 47 46 45 45 44 44 43 43 44 44 43 42 41 41 43 45 43 41 41 40 38 37 34 32 30 31 31 30 28 27 25 24 23 22 21 19 18 18 18 18 18 18 18 17 17 16 16 15 14 14 14 13 13 13 14 14 15 15 15 15 14 14 13 14 14 15 15 15 15 15 15 15 16 16 16 17 16 16 17
44 43 44 46 47 47 46 45 44 44 44 43 43 43 43 43 43 42 41 40 42 44 43 41 41 41 39 37 35 33 31 31 30 29 27 26 25 24 23 22 20 19 19 19 18 18 18 18 18 18 17 16 16 15 15 14 14 14 14 14 15 15 15 15 15 15 15 14 14 14 14 15 15 15 15 15 15 15 16 16 16 17 16 16 17
43 41 42 44 45 45 45 44 43 43 43 42 42 42 42 41 42 41 40 39 41 42 41 40 39 39 39 38 36 34 33 32 31 29 28 26 25 24 22 21 20 20 19 18 18 18 18 18 18 18 17 17 16 15 15 14 14 14 14 15 15 15 16 16 15 15 15 14 14 14 15 16 16 16 16 16 15 15 16 16 16 16 16 16 17
42 40 39 41 43 44 44 43 43 42 42 41 40 41 41 40 41 40 39 39 40 41 40 39 38 37 37 38 37 35 34 32 31 29 28 27 25 23 22 21 20 20 19 18 18 18 18 18 18 18 17 17 17 16 16 15 14 14 14 15 15 15 16 15 15 15 16 16 16 16 17 17 17 16 16 16 16 16 16 16 16 17 17 17 18
41 38 38 40 42 44 43 42 42 42 41 41 40 39 39 39 40 41 40 39 39 39 39 39 38 38 37 37 37 36 34 32 31 29 28 27 26 24 22 21 20 20 19 19 18 19 18 18 18 19 18 18 18 18 17 16 15 15 15 15 15 15 16 15 15 16 17 18 18 18 19 18 17 17 16 16 16 16 16 16 17 17 18 18 19
38 37 37 40 41 42 42 42 42 42 41 40 39 38 38 38 39 40 40 40 38 38 39 39 38 38 38 38 37 35 34 32 31 30 29 27 26 24 23 22 21 20 20 20 19 20 19 18 18 19 19 18 18 18 18 17 16 16 16 16 16 16 16 16 16 16 17 18 19 19 19 19 18 17 17 17 16 17 17 17 17 18 18 18 19
36 36 37 39 40 40 41 40 40 40 40 39 38 38 37 37 37 37 38 39 38 38 39 39 40 40 40 38 36 33 32 32 31 30 29 28 26 24 23 22 21 20 21 21 21 21 21 20 19 19 19 19 19 19 18 18 17 17 17 17 17 17 17 17 17 16 17 18 18 18 19 19 18 18 18 17 17 17 17 17 17 18 18 18 18
34 35 36 37 38 39 41 39 38 39 40 39 38 37 36 35 35 35 36 36 36 36 37 38 40 41 40 38 35 33 32 31 31 30 29 28 26 25 23 21 20 20 20 21 22 22 22 20 19 19 19 19 19 19 19 18 18 18 17 17 17 18 18 18 18 18 18 18 18 18 18 19 18 18 18 18 18 18 18 18 18 18 18 18 18
31 33 35 36 36 37 39 38 37 39 41 41 38 36 35 34 33 32 33 34 33 34 34 35 37 39 38 35 34 32 31 30 30 29 28 27 26 25 24 22 20 19 20 20 21 21 21 20 19 19 19 19 19 19 19 19 18 18 18 18 18 18 19 19 18 18 18 18 18 18 18 18 18 18 18 18 18 18 18 18 18 17 17 18 18
30 32 33 34 35 34 35 36 37 38 40 41 40 38 36 34 32 31 31 32 31 32 33 35 35 35 33 32 31 30 30 30 29 28 27 27 26 25 24 22 21 20 19 19 19 19 19 20 20 19 19 19 19 19 19 19 18 18 18 18 18 19 19 19 19 18 18 18 17 17 17 17 17 17 17 17 18 18 18 18 17 17 17 18 18
30 30 31 32 33 33 33 34 35 35 37 38 39 38 37 36 34 32 31 31 30 31 33 33 32 31 30 30 30 29 29 29 29 28 28 27 26 25 24 23 22 20 19 18 18 19 19 20 20 19 19 19 19 19 19 19 18 18 18 18 18 19 19 19 19 19 18 18 18 18 18 18 18 18 18 18 18 18 18 18 18 18 18 18 18
29 29 30 31 32 33 34 34 34 34 35 35 36 36 36 36 36 34 31 31 30 31 31 29 28 27 28 29 29 28 28 28 28 28 28 27 27 25 24 23 22 21 19 18 18 19 20 20 20 19 19 19 19 19 19 19 18 18 18 18 18 19 19 18 18 19 19 19 19 20 19 19 19 19 19 19 19 19 19 19 19 19 19 18 18
30 29 30 30 31 33 34 34 34 34 34 35 34 34 35 36 36 36 34 32 32 31 28 26 26 26 27 28 28 28 28 28 28 28 28 27 27 26 24 23 22 20 19 18 18 19 19 20 20 20 19 18 18 19 19 19 18 18 19 19 18 18 19 19 18 18 19 19 20 20 20 20 20 20 20 20 20 20 20 20 20 20 19 19 18
31 29 29 30 31 31 32 33 34 33 34 34 34 34 34 35 36 37 37 35 34 30 27 26 26 27 28 29 29 29 29 29 29 29 28 28 28 27 25 23 22 20 19 18 18 18 18 19 19 20 19 19 19 19 19 19 19 19 19 19 18 18 18 19 19 18 19 19 19 19 19 19 20 20 20 20 20 20 20 20 20 20 20 19 19
31 29 29 29 30 31 32 33 33 33 33 34 34 34 34 35 35 37 38 38 36 32 28 27 28 29 29 30 30 30 30 30 29 29 29 29 28 27 25 24 21 20 19 19 18 18 18 18 19 20 20 20 20 20 19 19 19 20 20 19 18 18 19 19 19 19 19 19 19 19 18 18 19 19 19 19 19 19 19 19 20 20 20 20 20
30 29 29 29 29 31 32 32 33 33 33 34 34 34 34 35 35 36 37 39 37 33 29 28 29 30 31 31 31 31 31 31 30 30 30 30 28 27 26 24 22 20 20 19 19 19 19 19 19 19 19 20 20 20 20 20 20 20 20 19 18 18 19 19 19 19 19 19 18 18 18 18 18 18 19 19 18 18 19 19 19 19 19 19 19
29 28 28 29 29 29 30 31 32 33 34 34 34 33 34 34 36 36 37 37 36 33 30 29 30 30 31 31 31 32 31 31 31 31 31 30 28 27 26 24 22 22 21 20 20 20 20 20 20 19 19 19 20 20 20 20 20 20 19 19 18 18 18 19 19 18 18 18 17 17 18 18 18 19 18 18 18 18 18 18 18 18 18 18 17
29 27 27 28 29 30 30 30 31 32 33 34 34 34 34 34 36 37 37 35 35 33 32 31 30 30 31 32 31 30 30 30 30 30 30 29 28 27 27 25 23 23 22 21 20 20 20 20 20 19 19 19 19 20 20 20 21 20 19 19 18 18 19 19 19 19 18 17 17 18 18 19 19 19 19 18 18 18 17 17 17 17 17 16 16
28 28 27 26 28 30 30 29 31 32 33 34 34 34 33 33 35 38 38 35 34 34 33 32 31 31 31 32 31 29 29 30 30 30 30 29 28 27 27 26 25 23 23 22 21 20 20 20 20 20 20 19 20 20 21 21 21 20 20 20 19 19 19 20 19 18 18 18 18 19 20 20 20 19 18 17 17 17 17 17 17 16 16 16 16
27 29 29 26 25 28 30 29 30 32 33 33 34 34 34 34 34 36 37 36 35 35 35 33 32 32 32 32 31 29 29 30 30 30 29 29 28 27 27 27 26 25 24 23 22 21 21 21 21 21 20 20 20 21 21 20 20 21 21 21 20 20 20 20 19 18 19 19 19 20 21 21 19 18 17 17 17 16 16 16 16 15 15 15 16
25 28 29 27 24 26 30 31 30 31 32 33 34 34 35 35 34 34 35 35 35 36 36 34 32 33 32 32 31 30 30 30 30 30 30 29 29 28 28 28 27 26 25 24 24 23 23 22 22 21 21 21 20 20 20 20 20 20 21 21 20 20 20 19 19 19 20 20 21 21 21 20 18 17 17 16 16 15 15 16 15 15 15 16 17
26 26 28 28 25 24 27 30 31 32 32 33 34 34 35 36 36 35 34 33 33 35 37 35 33 32 32 31 31 31 31 30 30 30 30 30 29 29 29 29 28 27 27 26 25 24 24 23 23 22 22 21 20 20 20 20 20 21 21 21 21 21 20 20 20 20 21 21 22 21 20 19 18 17 17 16 16 15 15 15 16 16 16 17 17
25 26 27 27 25 24 25 28 31 32 33 34 35 35 35 35 35 35 35 34 33 34 36 36 34 33 33 32 31 31 30 29 29 29 29 29 30 30 30 29 28 28 27 27 26 26 24 23 23 23 22 22 22 21 21 21 21 22 22 22 22 21 21 21 21 21 21 22 22 21 19 18 18 17 17 16 16 16 16 16 16 17 17 17 17
22 25 26 26 26 25 25 27 29 31 33 34 35 35 36 36 35 34 34 34 33 33 34 35 35 35 35 34 32 30 29 28 29 29 29 29 30 31 30 29 29 28 28 28 26 25 24 24 23 23 23 23 23 23 23 22 22 22 22 22 22 21 21 21 22 22 22 22 22 20 19 18 18 17 16 16 16 16 16 16 17 18 18 19 19
20 22 24 25 24 25 25 26 28 30 32 34 34 35 35 36 36 35 34 34 35 34 34 34 35 36 37 36 34 31 30 29 30 30 29 29 30 30 30 30 29 29 29 28 26 25 25 25 24 24 24 24 24 24 23 23 23 23 23 22 22 21 22 22 23 22 22 22 21 20 19 18 18 17 16 17 16 16 16 17 18 18 19 20 20
20 21 22 22 22 23 25 27 28 29 31 32 33 34 35 35 36 36 35 35 35 35 35 35 35 36 37 37 35 33 31 31 31 30 30 30 30 30 30 30 30 30 30 28 26 25 25 25 24 24 24 24 24 24 24 24 24 24 24 23 22 22 22 22 23 22 22 21 20 19 19 18 18 17 17 17 17 16 17 17 18 18 19 20 20
19 20 22 22 21 22 24 25 27 28 29 30 32 33 34 35 35 36 36 36 36 36 36 35 35 36 36 35 34 33 32 32 31 31 31 31 31 30 30 30 30 30 29 28 26 25 26 26 25 25 24 24 24 24 24 24 24 24 24 23 22 23 23 22 22 22 21 20 20 19 19 18 18 18 17 17 17 17 17 18 18 19 20 20 20
18 19 21 21 21 20 20 22 24 26 28 29 31 32 33 34 35 36 36 37 37 37 37 36 36 36 35 35 34 33 33 32 32 32 32 32 31 30 30 29 29 29 29 28 27 27 27 27 26 25 25 25 25 25 25 25 24 23 23 23 23 23 23 22 22 21 20 20 20 19 19 19 19 18 18 18 17 17 18 18 19 20 21 20 20
18 18 19 20 20 20 20 21 22 24 26 28 29 30 31 33 34 35 36 37 37 37 38 38 37 37 36 35 34 34 34 33 33 33 33 32 32 31 31 30 30 30 30 29 29 28 28 27 27 26 26 26 25 25 25 24 24 24 24 23 23 23 23 22 22 21 20 20 20 20 20 20 19 19 19 18 18 18 19 19 20 21 21 20 20
19 20 20 20 21 21 22 22 22 23 25 27 28 29 30 31 32 34 35 36 37 37 38 38 38 38 37 36 36 35 34 34 34 33 33 32 32 32 32 32 31 31 31 30 29 29 28 27 27 26 26 25 25 25 24 24 24 24 24 24 23 23 23 23 22 21 21 21 20 21 21 20 20 19 19 19 19 19 19 20 21 21 21 20 20
21 21 22 22 23 23 23 23 23 23 25 27 28 29 30 31 31 32 34 35 36 36 36 37 38 38 38 37 36 36 35 35 34 33 33 33 33 33 33 33 32 32 31 30 29 29 28 27 27 27 26 25 25 25 24 24 24 24 24 24 23 23 23 23 22 22 21 21 21 21 21 21 21 20 20 20 20 20 20 20 21 21 21 20 20
21 22 23 23 24 24 24 24 24 24 25 27 29 30 31 31 32 33 33 34 35 35 35 37 38 38 38 38 37 37 37 37 36 35 35 34 34 34 34 34 33 32 31 30 29 29 28 28 27 27 26 26 26 25 25 24 24 24 24 24 23 23 23 23 22 22 22 22 22 22 21 21 21 21 21 21 21 20 20 21 21 21 20 21 21
21 22 23 23 24 24 25 25 25 25 26 27 29 31 31 32 33 33 33 34 35 35 35 36 37 38 38 38 38 38 38 38 38 37 37 36 36 35 35 34 34 33 32 31 30 29 29 28 28 27 27 26 26 26 25 25 25 24 24 24 24 24 23 23 22 22 23 23 22 22 22 21 22 22 22 21 21 21 21 21 21 21 21 21 21
21 22 22 23 23 23 24 24 25 25 25 26 28 30 31 32 32 33 34 35 35 36 36 36 36 37 37 38 38 38 38 38 37 37 37 37 36 36 35 34 34 34 33 31 30 30 29 28 28 27 27 27 26 26 26 25 25 24 24 24 24 24 23 23 23 23 23 23 22 22 22 22 22 22 22 22 21 21 21 21 21 21 21 21 21
19 20 21 21 22 22 23 23 24 25 25 25 26 28 29 30 31 33 34 36 36 37 37 36 36 36 36 37 37 37 36 36 36 36 35 35 34 34 33 33 33 32 31 30 30 30 29 27 26 26 27 27 27 26 26 26 25 25 25 24 24 24 24 24 24 24 23 23 23 22 22 22 23 23 23 22 21 21 21 21 21 21 21 21 21
17 18 19 20 20 21 22 22 23 23 24 24 25 26 27 29 30 32 34 36 37 37 37 37 36 36 36 36 36 35 34 33 33 33 33 33 33 32 31 31 30 30 29 29 29 28 27 26 26 26 27 26 26 26 26 26 25 25 24 24 23 23 23 24 24 24 23 23 23 23 23 23 23 23 22 22 22 21 21 22 22 22 22 21 22
14 15 16 17 18 18 19 20 21 21 21 22 22 23 25 26 28 29 31 33 34 35 36 36 36 36 36 36 35 34 33 31 30 30 30 30 30 29 29 29 29 28 29 29 28 28 27 26 26 26 25 25 25 25 24 24 24 23 23 23 23 23 23 24 24 24 24 23 23 23 23 23 23 23 23 22 22 22 22 22 23 22 22 22 22
10 12 13 15 15 16 16 17 18 18 19 19 19 20 21 22 24 25 26 26 27 29 31 33 33 33 33 33 32 31 31 30 30 30 30 29 28 28 27 27 27 27 27 28 28 27 26 26 25 25 24 23 23 23 23 23 22 22 23 23 23 23 23 24 24 24 24 24 24 24 23 23 23 23 23 23 23 23 23 23 23 22 22 22 22
6 8 10 12 12 13 14 14 15 16 17 17 18 18 19 19 20 21 22 22 23 24 26 28 28 29 29 30 29 29 28 28 28 29 29 28 27 27 26 26 26 26 26 27 27 26 25 24 24 24 23 22 22 23 23 23 22 23 23 24 23 24 24 24 24 25 25 24 24 24 23 23 23 23 23 23 23 23 23 23 23 23 22 22 23
3 4 6 8 10 11 12 13 13 14 15 16 16 16 17 16 16 17 18 20 21 22 23 24 24 24 24 25 25 26 26 26 27 27 27 27 26 26 26 26 26 26 25 25 25 25 24 23 23 24 23 23 23 23 23 23 23 23 23 23 23 23 23 24 24 24 24 24 24 24 23 23 23 23 23 23 23 23 23 23 23 23 23 23 23
4 3 3 4 5 8 9 11 11 12 13 14 14 14 14 14 13 13 15 17 18 19 20 21 21 22 22 22 22 23 24 25 26 26 27 26 25 25 25 26 26 26 26 26 25 24 24 23 24 24 24 23 23 23 23 23 23 23 23 23 23 23 23 23 24 24 23 23 23 23 23 23 23 23 23 23 23 23 23 22 23 23 23 23 24
5 4 3 2 2 2 4 5 6 7 8 9 11 11 12 12 12 12 12 13 15 16 17 18 19 20 20 21 21 21 22 23 25 26 26 27 26 26 26 26 26 26 26 26 25 24 23 23 24 24 24 24 23 23 23 23 23 23 23 23 23 23 22 23 23 23 23 23 23 23 23 23 23 23 22 22 22 23 23 23 23 24 24 24 24
5 4 3 3 2 1 0 1 2 3 4 5 7 9 10 11 11 11 11 12 13 14 15 16 18 18 19 20 20 20 20 21 23 24 26 27 27 26 26 26 25 25 25 25 24 24 24 24 25 25 26 25 24 24 23 23 23 23 23 23 23 22 22 22 22 22 22 22 22 22 22 22 22 22 22 22 22 23 23 23 24 24 24 24 24
5 4 4 4 3 2 1 2 2 3 3 3 5 6 8 9 10 11 12 13 14 15 16 17 17 18 19 20 20 20 20 20 21 22 24 24 25 25 25 25 25 25 25 25 25 25 25 25 25 26 26 25 25 24 24 24 24 24 23 23 22 22 22 22 22 22 22 22 21 22 22 22 22 22 23 23 23 23 23 24 24 24 24 24 25
Wind_Direction
210 211 212 212 211 211 211 211 211 212 213 212 213 215 217 215 213 212 211 210 211 212 213 213 214 216 218 220 221 223 225 227 225 222 223 226 227 229 232 235 241 248 254 260 266 266 265 265 266 266 269 274 280 284 287 289 292 296 300 303 303 304 306 308 310 316 320 320 319 319 318 319 320 314 308 305 298 292 299 301 298 300 302 304 306
209 210 211 212 211 210 210 211 212 212 213 214 215 216 218 218 217 216 214 213 213 214 214 214 215 217 219 220 222 224 225 226 224 222 223 225 227 230 232 235 241 247 251 256 262 264 262 262 264 264 265 270 275 280 284 288 292 295 298 302 302 301 302 303 305 309 314 316 317 318 318 316 317 312 305 302 296 291 295 296 293 294 297 300 302
209 209 210 211 210 210 210 211 212 213 214 216 217 217 218 219 219 220 219 217 215 215 215 215 216 218 219 221 222 223 224 225 224 223 224 225 227 231 233 236 242 246 249 253 258 261 260 260 262 263 263 267 271 275 281 286 290 294 297 299 300 299 299 300 301 304 309 311 311 314 315 314 315 312 306 301 296 290 292 292 289 290 294 295 298
209 208 209 210 210 210 210 211 212 212 214 216 217 217 218 220 220 221 222 221 218 216 216 216 217 218 219 221 222 223 224 225 224 223 224 225 228 231 234 238 242 245 247 251 255 257 257 258 260 261 262 264 267 271 277 281 286 290 293 295 297 297 297 298 297 299 304 307 308 310 311 312 314 312 307 302 297 290 290 290 288 289 292 292 294
208 207 208 209 210 209 210 211 212 213 214 215 216 216 217 219 220 222 223 223 221 219 217 217 217 218 219 221 222 223 224 225 224 222 223 225 228 231 235 239 242 244 246 250 253 255 255 256 259 260 260 262 264 268 272 276 281 286 289 292 295 296 296 297 295 294 297 302 304 306 308 311 312 311 307 303 298 292 289 289 289 290 292 293 294
207 207 208 209 209 209 210 211 212 213 214 215 216 216 217 219 220 221 223 224 224 222 219 216 216 217 219 220 221 222 224 225 222 220 221 224 227 231 235 238 241 244 246 248 251 253 252 254 257 259 259 260 263 266 269 272 277 282 286 289 293 294 294 295 294 292 292 296 300 303 305 308 310 310 307 303 298 293 289 288 289 291 293 294 296
207 207 207 208 209 209 210 211 212 213 214 215 216 217 218 219 219 220 221 223 223 223 221 217 216 216 218 219 220 221 222 221 218 218 220 223 226 230 234 237 240 243 245 246 248 251 251 252 255 257 258 259 262 265 267 270 274 279 284 288 291 292 292 292 292 290 289 291 297 301 303 306 309 310 309 305 300 295 291 288 289 290 292 293 294
207 207 206 207 208 209 210 211 212 214 214 215 217 218 218 219 219 219 220 222 222 221 220 218 215 216 217 218 218 219 218 216 214 215 218 221 225 229 232 235 238 240 242 245 247 249 250 251 253 256 258 259 262 264 267 269 272 276 281 286 289 290 292 292 289 286 285 287 293 298 301 304 308 309 308 305 301 297 292 289 288 289 290 292 292
206 207 206 206 206 208 209 211 212 213 214 215 216 217 217 218 218 218 220 221 219 218 220 219 216 215 216 216 216 216 215 213 213 215 218 221 225 229 231 233 234 237 241 244 247 248 249 250 253 255 257 260 262 264 267 269 271 275 279 284 287 289 291 292 288 284 282 284 289 295 299 303 305 305 305 301 298 297 294 292 292 291 291 293 294
203 205 206 205 206 207 208 209 210 211 212 214 215 215 216 216 216 217 219 219 217 218 221 221 218 215 214 213 213 214 213 214 216 217 218 221 224 228 229 230 232 236 240 244 246 248 248 250 254 255 257 259 261 263 265 268 271 274 279 284 287 288 289 290 288 284 281 281 285 291 297 301 301 301 301 300 298 298 296 294 296 296 294 295 296
201 204 205 205 205 206 207 208 209 210 211 212 213 214 214 215 215 216 217 217 218 221 225 224 221 220 216 212 211 212 214 215 217 217 217 220 223 225 226 228 232 235 239 243 245 247 248 250 253 256 258 259 260 262 264 267 270 272 278 286 288 288 289 289 287 284 281 281 283 288 294 298 298 299 300 300 299 299 298 296 297 297 294 293 295
200 203 205 204 203 204 205 206 207 208 209 210 211 212 213 215 215 216 218 220 222 224 225 225 224 224 221 213 209 211 214 215 216 216 217 219 221 223 226 229 233 236 240 244 246 247 249 251 252 255 257 258 259 262 264 266 268 271 277 284 287 288 289 289 289 286 283 283 283 285 290 295 296 296 296 297 298 298 298 296 296 297 297 294 294
200 202 204 203 203 203 204 205 206 206 207 208 210 211 213 215 217 218 220 224 225 225 225 226 225 224 222 215 209 210 213 214 215 216 216 217 219 223 227 231 236 240 243 245 247 248 250 251 252 254 255 256 257 260 263 266 268 271 277 282 284 285 286 287 289 288 286 287 286 285 289 292 292 293 294 295 297 298 298 297 295 297 298 296 296
200 202 203 203 204 203 203 205 205 204 205 207 209 211 213 215 217 219 221 224 226 227 227 227 226 223 219 213 209 211 213 213 214 214 215 217 219 224 228 233 238 243 246 247 248 249 250 250 251 252 253 255 256 259 261 264 268 271 276 281 282 283 284 285 287 288 287 289 289 288 290 292 291 292 294 293 295 297 299 298 297 296 296 297 299
200 201 202 204 205 204 204 206 207 206 206 207 209 211 213 214 217 219 221 223 226 228 229 228 224 219 213 208 208 210 211 211 211 212 214 217 220 225 229 233 239 244 248 251 250 248 248 249 250 250 251 253 254 256 259 262 266 270 275 279 282 283 284 284 284 285 287 288 288 288 290 292 292 293 293 292 294 297 299 300 300 299 299 300 301
199 200 202 203 205 205 205 207 209 208 208 209 210 211 213 215 217 218 219 222 225 226 224 219 213 207 204 203 205 208 209 208 209 211 215 218 221 226 229 234 239 245 250 253 251 248 247 247 248 248 249 251 253 255 258 261 265 270 273 278 282 283 283 283 282 283 285 287 288 287 289 291 292 293 292 292 293 296 298 300 300 301 302 303 303
197 198 200 201 202 204 204 206 207 208 209 210 211 213 214 215 216 216 218 220 221 219 213 207 202 198 198 200 203 205 207 208 209 212 216 219 222 227 230 235 240 245 249 252 251 246 244 244 245 246 248 251 254 255 257 260 264 269 273 278 280 281 282 282 282 281 282 284 286 287 287 288 290 292 292 292 294 295 296 297 297 299 302 303 303
198 198 199 200 202 203 203 204 205 207 208 210 211 214 216 216 214 215 217 217 215 211 207 203 199 197 198 201 203 205 207 209 211 214 217 220 224 228 231 235 239 244 249 251 248 244 243 243 244 246 249 252 254 256 257 259 263 268 273 277 278 280 281 281 281 279 278 280 283 284 285 286 288 289 290 291 293 294 295 296 296 297 301 302 302
202 201 201 201 203 204 204 205 206 208 209 209 211 212 214 214 214 213 213 211 209 206 203 201 200 199 201 204 205 208 210 213 215 217 219 222 226 229 232 234 237 242 248 250 247 245 245 244 244 246 250 251 252 255 257 259 263 269 273 277 278 279 281 281 280 279 277 278 281 283 283 284 285 286 287 289 292 293 295 297 296 296 298 299 300
204 205 204 203 204 204 205 207 208 210 211 211 212 212 212 213 214 213 211 208 208 208 207 207 207 206 207 209 211 213 215 216 218 220 221 223 225 228 231 233 235 240 245 247 247 247 247 247 246 247 248 248 250 254 257 259 265 270 272 276 278 278 280 280 279 279 279 280 281 282 282 282 283 284 285 287 290 291 293 296 297 296 296 297 298
205 206 206 205 205 205 207 209 211 212 212 212 212 213 213 213 213 212 211 209 210 214 216 214 213 212 213 215 216 217 218 219 221 221 222 223 225 227 230 232 233 238 242 244 246 247 247 249 249 247 246 247 250 255 257 259 266 271 273 275 276 277 279 280 277 278 281 281 281 282 281 280 282 285 285 286 287 289 290 294 297 298 297 296 297
207 207 206 207 208 208 209 211 212 213 213 212 212 213 213 213 212 212 212 211 213 217 219 217 216 216 217 219 220 220 220 220 221 222 223 224 225 227 230 231 233 237 241 243 245 247 248 250 251 249 247 248 251 256 258 260 266 271 273 274 274 274 277 279 278 278 280 280 280 281 280 280 282 284 285 286 287 288 289 292 295 298 298 297 297
207 206 207 209 209 209 209 211 213 213 212 212 212 213 213 212 212 212 213 212 212 215 219 219 219 220 221 222 222 221 220 220 221 222 223 223 225 227 230 231 234 238 242 244 246 248 250 252 253 251 249 249 252 256 259 262 267 270 271 272 272 272 275 278 278 278 279 280 280 279 278 279 282 283 285 286 287 288 290 292 294 296 298 299 300
207 206 207 209 209 208 209 210 211 212 212 213 213 214 214 214 213 213 214 214 214 217 220 221 222 223 224 224 224 221 219 220 221 222 222 222 225 227 229 231 235 239 243 246 248 249 251 253 252 252 252 252 253 256 259 262 267 270 269 268 269 272 274 276 277 278 279 279 278 276 277 280 282 284 285 285 286 288 290 292 294 296 298 300 303
210 209 211 213 211 209 209 210 211 212 212 212 213 214 215 215 214 214 216 217 218 220 222 224 225 226 226 227 228 225 220 219 220 220 221 222 225 228 229 231 236 241 244 247 250 250 251 251 252 253 255 256 256 257 260 263 266 268 266 266 268 272 275 276 278 279 278 276 274 274 277 281 284 285 284 284 285 287 289 291 294 296 297 299 301
210 210 212 214 212 210 211 213 214 214 213 212 213 214 214 215 215 216 218 221 222 222 224 226 227 227 226 228 230 228 223 219 219 219 221 224 227 229 229 231 236 241 244 247 250 251 250 251 252 254 256 258 257 258 260 264 266 267 265 265 268 272 275 276 277 276 275 274 273 275 278 282 284 284 283 283 285 286 288 290 292 292 294 295 298
210 210 213 217 217 215 214 214 215 215 214 214 214 214 214 215 216 216 218 222 224 224 223 225 227 227 227 228 229 228 224 220 219 220 222 225 228 229 231 233 236 240 245 249 251 252 252 252 252 253 255 257 258 258 260 265 268 267 264 265 269 273 275 277 276 274 273 273 274 277 280 282 283 282 281 283 284 285 287 288 288 290 292 294 298
210 208 211 217 222 220 217 216 217 216 216 216 217 216 216 216 216 217 219 222 224 223 222 225 227 227 226 226 227 227 223 219 220 222 224 226 229 231 233 235 237 242 246 249 252 253 252 252 252 253 254 255 255 256 260 265 268 267 264 265 269 273 276 276 275 274 274 274 275 278 279 280 279 278 279 281 282 284 286 286 287 289 292 295 299
210 209 211 215 220 221 220 219 219 219 218 218 219 219 220 220 221 222 223 225 226 224 222 225 227 225 224 224 224 223 221 221 223 224 226 228 231 233 234 236 239 242 245 247 250 252 251 251 252 252 251 251 252 254 259 264 267 267 265 266 270 273 274 274 274 274 273 273 276 277 277 276 276 275 277 278 279 282 284 285 286 289 292 296 299
210 212 213 216 220 223 222 221 221 221 220 220 221 222 223 223 224 225 225 227 228 225 224 225 226 225 223 223 222 222 223 225 227 227 228 231 233 235 236 237 239 241 243 246 249 250 249 249 248 248 249 250 252 255 259 262 265 266 266 268 270 272 273 274 274 273 272 274 276 276 274 272 272 273 275 275 276 280 282 283 285 288 292 294 295
210 212 214 218 222 224 223 222 222 221 221 222 222 223 223 224 225 225 225 225 226 225 225 226 226 225 223 224 225 227 229 231 231 231 233 235 236 236 237 238 239 241 242 245 248 249 248 247 247 248 250 252 254 256 259 261 264 266 267 268 269 271 272 273 272 271 271 272 273 273 271 270 270 272 272 273 275 278 280 282 286 289 291 291 291
214 216 216 220 226 227 224 223 223 222 222 222 223 223 223 224 225 226 226 226 225 226 227 227 227 228 227 228 231 233 235 235 234 235 237 238 238 238 237 238 240 241 242 244 247 248 247 246 247 249 251 252 254 256 258 261 264 266 267 268 269 270 270 270 270 270 270 270 269 269 269 268 269 270 270 271 274 277 278 282 286 288 289 291 294
222 222 221 225 232 232 227 225 225 224 224 223 223 224 224 225 225 226 227 227 227 227 228 228 229 230 231 232 233 234 235 236 236 237 239 240 239 238 238 239 239 239 240 242 244 245 245 245 247 249 251 253 255 256 258 261 264 267 268 267 267 268 268 268 270 270 269 268 268 268 267 267 267 268 270 271 274 276 279 283 285 285 288 292 296
225 227 226 228 233 232 230 229 227 226 226 225 224 225 226 227 227 226 226 227 227 228 229 229 230 231 233 233 233 233 234 236 237 239 240 240 239 239 238 238 238 238 240 241 243 243 244 245 247 249 251 254 256 257 259 262 264 266 267 266 265 265 267 268 270 270 268 267 266 266 266 266 267 267 268 270 273 277 279 281 282 284 287 291 294
226 226 226 228 230 231 232 233 231 229 227 226 225 225 227 229 229 228 227 227 227 228 229 230 231 232 233 234 233 233 234 236 238 239 240 239 238 237 236 236 236 238 240 243 244 245 245 244 246 249 252 254 256 257 259 261 264 265 265 263 262 264 265 268 269 268 265 264 265 264 265 266 266 265 265 268 273 278 279 279 282 286 288 290 293
232 230 230 232 233 234 236 239 237 233 229 227 226 226 228 230 230 229 228 228 228 229 230 230 231 232 233 234 234 234 235 237 238 238 238 238 237 236 235 235 237 239 242 244 245 245 245 245 246 250 252 254 256 257 259 260 262 263 262 261 261 263 264 267 268 265 263 263 264 264 265 265 264 264 265 268 274 278 278 279 283 287 289 290 292
238 237 237 239 240 240 240 242 242 238 233 230 228 227 228 230 230 229 229 229 229 231 232 232 232 233 234 235 235 235 236 237 238 238 238 237 236 236 237 237 238 241 243 244 243 243 244 246 247 249 251 253 254 256 258 259 261 261 261 261 261 262 263 265 265 263 262 263 263 263 264 264 264 264 265 268 274 278 278 279 283 287 288 289 291
240 241 242 244 244 244 243 243 244 242 237 234 232 231 230 230 230 229 230 230 230 231 232 233 234 234 234 235 235 235 235 236 237 238 237 236 236 238 239 239 240 242 243 242 241 241 243 246 247 249 250 252 254 256 257 258 258 259 260 260 261 262 262 262 262 261 261 262 263 263 264 264 264 265 267 270 274 277 277 277 281 285 286 285 287
242 243 245 246 247 246 246 246 246 244 240 237 235 233 233 232 231 231 231 231 231 232 233 233 233 234 235 235 235 235 235 235 236 237 237 236 237 238 239 240 241 242 241 240 239 240 242 245 247 249 250 252 254 255 255 255 256 258 259 260 261 261 261 260 260 260 261 263 263 263 263 264 264 266 269 272 274 276 276 276 280 283 283 283 284
243 243 244 246 247 247 247 247 246 245 242 239 236 234 233 232 232 232 232 232 232 234 234 234 234 234 235 235 235 235 235 236 237 237 236 235 236 237 238 239 240 239 238 238 239 240 242 245 247 249 250 252 254 254 254 254 256 258 260 260 261 261 260 258 259 260 261 262 263 263 263 264 265 267 270 272 273 274 275 276 278 279 280 281 283
244 244 244 245 245 245 245 245 244 243 241 239 238 236 234 233 233 233 233 233 234 235 235 235 235 235 235 235 235 236 236 237 237 236 235 234 234 235 237 238 238 237 237 238 239 240 242 244 246 248 250 252 253 253 253 253 255 258 260 261 261 260 258 257 258 260 261 262 263 263 264 265 266 267 268 270 271 273 274 275 276 277 278 281 283
248 247 246 245 244 244 243 242 242 240 239 238 238 237 236 236 236 236 236 236 236 236 236 235 236 235 235 235 235 236 237 236 236 235 233 232 233 234 236 237 236 236 236 237 238 239 240 241 244 248 251 251 252 252 252 254 256 259 261 261 260 259 257 257 259 260 261 262 263 263 263 264 265 266 267 268 270 271 272 273 275 277 278 280 282
250 248 247 245 244 243 242 241 240 239 238 237 237 238 239 239 240 240 240 240 238 236 235 234 234 234 233 232 233 234 235 235 234 232 231 230 231 232 233 234 234 235 236 236 236 237 239 243 247 251 252 251 251 251 253 255 258 259 259 259 259 258 258 259 260 260 261 262 263 263 263 264 264 265 266 268 269 270 271 272 275 277 278 280 281
250 247 246 245 244 243 242 240 238 237 237 237 237 239 241 242 243 245 245 242 238 235 232 231 231 231 230 230 231 232 232 231 230 229 229 229 229 230 231 232 234 234 235 235 235 239 243 247 249 249 249 249 250 252 254 257 258 258 258 258 258 259 259 260 260 260 261 262 263 263 263 263 264 264 266 267 268 269 271 273 274 276 278 279 279
252 247 244 243 242 240 239 237 235 235 236 236 237 239 241 242 245 246 243 238 235 232 229 228 228 228 228 228 228 228 228 227 226 226 227 227 227 227 229 231 233 234 235 236 238 242 245 245 244 244 245 246 249 252 255 257 258 258 259 260 260 261 262 262 262 261 261 262 263 263 263 263 264 265 266 267 268 270 272 273 274 275 277 278 278
265 254 248 244 240 237 235 235 235 236 236 236 236 237 239 242 244 242 236 230 228 226 222 222 223 224 225 226 225 224 224 223 223 223 223 224 225 228 230 232 234 235 236 237 239 242 243 242 240 241 243 246 250 253 255 256 258 259 260 261 262 263 264 263 263 263 262 262 262 262 263 264 265 265 266 267 269 270 271 272 273 274 276 277 278
310 281 260 248 241 237 236 237 238 238 239 239 238 236 236 239 240 235 228 224 222 219 216 215 216 217 219 220 220 220 220 220 219 220 221 223 227 231 233 234 235 235 236 237 239 240 239 238 238 241 244 248 250 252 254 256 259 260 260 261 262 263 263 263 262 262 261 261 261 262 262 263 265 265 266 267 268 270 271 271 272 274 275 277 278
351 339 308 270 250 240 238 241 243 243 242 240 237 234 233 232 230 227 224 223 220 216 213 212 212 212 213 215 217 218 219 219 220 221 223 226 230 234 234 234 235 237 238 238 239 238 236 236 239 244 247 250 252 253 255 257 260 261 261 261 262 262 262 262 262 261 260 259 261 262 264 264 266 266 266 267 268 269 270 270 271 273 275 277 279
2 1 -0 352 321 248 232 237 242 241 237 232 227 224 224 224 222 222 223 222 220 217 214 212 212 213 214 216 219 221 223 224 226 227 228 231 234 236 235 235 237 238 238 236 236 236 236 238 242 246 249 250 252 254 256 257 259 260 262 262 261 260 261 262 261 260 259 259 261 263 265 266 266 266 266 267 268 269 269 269 271 273 276 278 279
353 355 358 3 9 23 177 221 230 232 231 226 221 219 220 222 223 222 219 216 216 217 217 216 216 217 219 222 224 226 228 230 231 233 234 236 237 236 236 236 236 236 234 233 235 238 242 245 248 250 251 251 252 253 255 257 259 260 261 261 260 260 261 261 260 259 259 260 261 263 264 265 265 265 266 267 268 268 269 270 272 274 277 278 279
346 347 347 345 343 330 294 261 247 241 239 234 224 219 218 220 222 222 220 218 218 218 219 220 222 224 225 225 227 230 233 235 236 237 236 235 235 234 234 234 234 234 234 236 239 243 247 250 251 251 250 251 252 253 255 257 258 258 258 259 259 260 261 261 260 258 258 259 260 261 263 264 264 264 266 268 268 269 270 271 273 275 277 279 279